FW4559 Weather Reports


time (UTC)temp
F
wind
direction
speed
knots
gust
knots
rain 1hr
in
rain 24hr
in
rain mn
in
humidity
%
barometer
mb
20260508135536 56 162 0.0 2.6 0.00 0.00 0.00 44 1017.5
20260508135035 56 139 0.9 2.6 0.00 0.00 0.00 43 1017.5
20260508134539 56 144 0.0 2.6 0.00 0.00 0.00 43 1017.4
20260508134033 56 179 0.9 2.6 0.00 0.00 0.00 43 1017.4
20260508133536 56 153 0.0 3.5 0.00 0.00 0.00 46 1017.2
20260508133032 56 205 0.0 3.5 0.00 0.00 0.00 45 1017.2
20260508132537 55 141 0.0 3.5 0.00 0.00 0.00 45 1017.2
20260508132033 55 124 0.9 3.5 0.00 0.00 0.00 45 1017.2
20260508131530 55 165 0.0 1.7 0.00 0.00 0.00 46 1017.0
20260508131030 55 141 0.9 1.7 0.00 0.00 0.00 43 1017.1
20260508130528 55 133 0.0 1.7 0.00 0.00 0.00 42 1017.0
20260508130029 55 176 0.0 1.7 0.00 0.00 0.00 44 1017.0
20260508125529 54 127 0.0 1.7 0.00 0.00 0.00 43 1016.9
20260508125027 55 149 0.0 0.9 0.00 0.00 0.00 45 1017.1
20260508124525 55 149 0.0 0.0 0.00 0.00 0.00 48 1016.8
20260508124024 54 149 0.0 0.0 0.00 0.00 0.00 51 1016.8
20260508123524 52 149 0.0 0.0 0.00 0.00 0.00 56 1016.8
20260508123022 51 149 0.0 0.0 0.00 0.00 0.00 58 1016.8
20260508122520 50 149 0.0 0.9 0.00 0.00 0.00 61 1016.8
20260508122018 48 149 0.0 0.9 0.00 0.00 0.00 63 1016.8
20260508121526 47 149 0.0 0.9 0.00 0.00 0.00 65 1016.7
20260508121018 45 161 0.0 0.9 0.00 0.00 0.00 68 1016.6
20260508120517 44 243 0.0 0.9 0.00 0.00 0.00 69 1016.5
20260508120017 43 144 0.0 0.9 0.00 0.00 0.00 73 1016.5
20260508115518 43 144 0.0 0.9 0.00 0.00 0.00 71 1016.4
20260508115015 41 124 0.0 0.9 0.00 0.00 0.00 75 1016.2
20260508114515 40 124 0.0 0.9 0.00 0.00 0.00 77 1016.1
20260508114018 39 110 0.0 0.9 0.00 0.00 0.00 79 1016.0
20260508113514 39 129 0.0 0.9 0.00 0.00 0.00 79 1016.0
20260508113016 39 131 0.0 1.7 0.00 0.00 0.00 79 1016.0
20260508112515 38 133 0.0 1.7 0.00 0.00 0.00 80 1015.8
20260508112011 38 113 0.0 0.9 0.00 0.00 0.00 81 1015.7
20260508111510 38 113 0.0 0.9 0.00 0.00 0.00 80 1015.7
20260508111009 38 142 0.0 0.9 0.00 0.00 0.00 78 1015.6
20260508110508 39 142 0.0 0.9 0.00 0.00 0.00 77 1015.5
20260508110014 39 142 0.0 1.7 0.00 0.00 0.00 77 1015.6
20260508105506 40 141 0.0 1.7 0.00 0.03 0.00 75 1015.5
20260508105005 42 126 0.0 0.9 0.00 0.03 0.00 70 1015.3
20260508104504 43 360 0.0 3.5 0.00 0.03 0.00 66 1015.1
20260508104003 43 360 1.7 4.3 0.00 0.03 0.00 64 1014.9
20260508103502 43 330 1.7 3.5 0.00 0.03 0.00 64 1014.7
20260508103001 43 344 0.9 3.5 0.00 0.03 0.00 65 1014.6
20260508102502 43 2 0.9 2.6 0.00 0.03 0.00 67 1014.6
20260508102001 42 96 0.0 0.9 0.00 0.03 0.00 68 1014.6
20260508101601 42 96 0.0 1.7 0.00 0.03 0.00 70 1014.5
20260508101100 42 96 0.9 2.6 0.00 0.03 0.00 70 1014.4
20260508100603 42 101 0.9 2.6 0.00 0.03 0.00 70 1014.4
20260508100059 42 120 0.9 1.7 0.00 0.03 0.00 69 1014.2
20260508095556 43 140 0.0 3.5 0.00 0.03 0.00 67 1014.2
20260508095055 44 26 0.0 5.2 0.00 0.03 0.00 66 1014.1
20260508094611 44 14 0.9 7.0 0.00 0.03 0.00 66 1014.0
20260508094053 44 321 3.5 7.0 0.00 0.03 0.00 66 1014.0
20260508093552 44 312 1.7 7.0 0.00 0.03 0.00 66 1014.0
20260508093052 44 346 3.5 11.3 0.00 0.03 0.00 65 1013.9
20260508092552 44 23 3.5 11.3 0.00 0.03 0.00 65 1013.8
20260508092052 44 334 4.3 9.6 0.00 0.03 0.00 65 1013.8
20260508091550 44 15 4.3 9.6 0.00 0.03 0.00 66 1013.8
20260508091051 44 8 4.3 9.6 0.00 0.03 0.00 66 1013.8
20260508090549 44 340 5.2 9.6 0.00 0.03 0.00 65 1013.7
20260508090052 44 335 4.3 9.6 0.00 0.03 0.00 66 1013.7
20260508085548 44 8 4.3 7.8 0.00 0.03 0.00 66 1013.9
20260508085047 44 330 3.5 7.8 0.00 0.03 0.00 66 1013.9
20260508084649 44 24 2.6 6.1 0.00 0.03 0.00 67 1013.8
20260508084047 44 323 1.7 5.2 0.00 0.03 0.00 67 1013.9
20260508083547 43 13 1.7 3.5 0.00 0.03 0.00 68 1013.8
20260508083044 44 345 0.9 1.7 0.00 0.03 0.00 68 1013.8
20260508082544 44 335 0.0 4.3 0.00 0.03 0.00 68 1013.8
20260508082045 44 352 0.0 4.3 0.00 0.03 0.00 68 1013.7
20260508081600 44 335 0.0 4.3 0.00 0.03 0.00 68 1013.7
20260508081043 44 348 0.9 5.2 0.00 0.03 0.00 68 1013.6
20260508080542 44 4 1.7 5.2 0.00 0.03 0.00 68 1013.6
20260508080042 44 30 0.9 4.3 0.00 0.03 0.00 70 1013.5
20260508075545 44 14 0.9 5.2 0.00 0.05 0.00 70 1013.5
20260508075046 44 37 0.9 3.5 0.00 0.05 0.00 70 1013.6
20260508074540 44 321 0.0 6.1 0.00 0.05 0.00 71 1013.5
20260508074039 44 101 0.9 6.1 0.00 0.05 0.00 70 1013.4
20260508073540 45 325 0.9 7.8 0.00 0.05 0.00 71 1013.5
20260508073041 45 343 1.7 8.7 0.00 0.05 0.00 71 1013.4
20260508072537 45 332 2.6 9.6 0.00 0.05 0.00 71 1013.3
20260508072037 45 283 3.5 11.3 0.00 0.05 0.00 71 1013.2
20260508071544 45 338 1.7 11.3 0.00 0.05 0.00 71 1013.3
20260508071035 45 52 2.6 12.2 0.00 0.05 0.00 71 1013.3
20260508070535 45 15 6.1 13.0 0.00 0.05 0.00 71 1013.2
20260508070035 45 19 6.1 13.0 0.00 0.05 0.00 71 1013.2
20260508065534 45 340 2.6 9.6 0.00 0.05 0.00 72 1013.3
20260508065133 45 278 4.3 9.6 0.00 0.05 0.00 73 1013.1
20260508064532 45 323 1.7 6.1 0.00 0.05 0.00 73 1013.1
20260508064031 45 349 0.9 7.8 0.00 0.05 0.00 73 1013.1
20260508063530 46 347 3.5 13.0 0.00 0.05 0.00 73 1013.0
20260508063044 46 33 1.7 13.0 0.00 0.05 0.00 73 1012.9
20260508062530 46 322 2.6 10.4 0.00 0.05 0.00 74 1012.8
20260508062029 46 315 3.5 13.0 0.00 0.05 0.00 75 1012.9
20260508061529 46 324 3.5 13.9 0.00 0.05 0.00 75 1012.8
20260508061028 46 296 3.5 11.3 0.00 0.05 0.00 76 1012.9
20260508060527 46 352 6.1 13.0 0.00 0.05 0.00 76 1012.9
20260508060034 46 348 6.1 13.0 0.00 0.05 0.00 77 1012.9
20260508055529 46 290 6.1 13.9 0.00 0.05 0.00 77 1012.9
20260508055026 46 338 7.0 14.8 0.00 0.05 0.00 78 1012.9
20260508054525 46 357 7.8 14.8 0.00 0.05 0.00 78 1012.9
20260508054023 46 339 6.1 15.6 0.00 0.05 0.00 78 1012.8
20260508053523 46 318 7.0 15.6 0.00 0.05 0.00 78 1012.7
20260508053024 46 319 7.0 13.9 0.00 0.05 0.00 78 1012.8
20260508052524 46 13 5.2 12.2 0.00 0.05 0.00 78 1012.7
20260508052021 47 326 4.3 13.0 0.00 0.05 0.00 78 1012.6
20260508051522 47 89 3.5 10.4 0.00 0.05 0.00 78 1012.5
20260508051020 47 77 3.5 10.4 0.00 0.05 0.00 78 1012.5
20260508050518 47 298 1.7 7.0 0.00 0.05 0.00 78 1012.4
20260508050019 47 58 1.7 9.6 0.00 0.05 0.00 78 1012.4
20260508045520 47 18 2.6 12.2 0.00 0.05 0.00 78 1012.2
20260508045018 47 12 4.3 13.9 0.00 0.05 0.00 79 1012.1
20260508044521 47 1 4.3 13.9 0.00 0.05 0.00 78 1012.2
20260508044016 48 335 6.1 13.9 0.00 0.05 0.00 77 1012.3
20260508043516 48 11 7.8 14.8 0.00 0.05 0.00 77 1012.4
20260508043019 48 329 7.0 14.8 0.00 0.05 0.00 77 1012.4
20260508042518 48 336 7.0 16.5 0.00 0.05 0.00 77 1012.4
20260508042013 48 335 10.4 16.5 0.00 0.05 0.00 76 1012.4
20260508041512 48 348 7.8 16.5 0.00 0.05 0.00 78 1012.4
20260508041012 48 292 6.1 17.4 0.00 0.05 0.00 78 1012.3
20260508040513 48 342 7.8 17.4 0.00 0.05 0.00 78 1012.2
20260508040009 47 16 7.0 13.0 0.00 0.05 0.00 79 1012.2
20260508035510 47 347 5.2 13.9 0.00 0.05 0.05 80 1012.4
20260508035009 47 341 6.1 12.2 0.00 0.05 0.05 79 1012.5
20260508034509 48 304 4.3 13.0 0.00 0.05 0.05 79 1012.6
20260508034008 48 322 6.1 13.0 0.00 0.05 0.05 79 1012.5
20260508033507 48 335 7.8 13.0 0.00 0.05 0.05 79 1012.5
20260508033007 48 5 3.5 13.0 0.00 0.05 0.05 79 1012.6
20260508032510 48 349 5.2 13.0 0.00 0.05 0.05 80 1012.6
20260508032006 48 328 4.3 10.4 0.00 0.05 0.05 80 1012.4
20260508031506 48 328 3.5 10.4 0.00 0.05 0.05 80 1012.4
20260508031006 48 316 3.5 10.4 0.00 0.05 0.05 80 1012.4
20260508030505 48 345 6.1 10.4 0.00 0.05 0.05 80 1012.2
20260508030006 47 316 2.6 11.3 0.00 0.05 0.05 80 1012.2
20260508025502 47 288 3.5 10.4 0.00 0.07 0.05 81 1012.1
20260508025001 47 264 2.6 10.4 0.00 0.07 0.05 81 1012.0
20260508024501 47 302 3.5 11.3 0.00 0.07 0.05 81 1012.1
20260508024001 47 345 2.6 11.3 0.00 0.07 0.05 81 1012.0
20260508023601 47 332 5.2 10.4 0.00 0.07 0.05 81 1012.1
20260508023100 47 8 1.7 7.0 0.00 0.07 0.05 81 1012.1
20260508022559 47 330 2.6 7.8 0.00 0.07 0.05 81 1012.0
20260508022201 47 322 1.7 7.8 0.00 0.07 0.05 81 1012.2
20260508021559 47 13 2.6 7.0 0.00 0.07 0.05 81 1012.0
20260508021058 47 311 1.7 7.0 0.00 0.07 0.05 80 1011.8
20260508020559 47 338 3.5 12.2 0.00 0.07 0.05 80 1011.7
20260508020105 48 229 1.7 7.8 0.00 0.07 0.05 80 1011.5
20260508015557 48 322 1.7 8.7 0.00 0.07 0.05 80 1011.4
20260508015057 48 336 3.5 16.5 0.00 0.07 0.05 79 1011.3
20260508014558 48 310 6.1 16.5 0.00 0.07 0.05 79 1011.2
20260508014056 48 4 5.2 13.0 0.00 0.07 0.05 79 1010.9
20260508013556 48 293 6.1 13.0 0.00 0.07 0.05 79 1010.9
20260508013053 48 337 5.2 13.0 0.00 0.07 0.05 79 1010.8
20260508012555 48 318 5.2 10.4 0.00 0.07 0.05 79 1010.8
20260508012051 48 352 3.5 11.3 0.00 0.07 0.05 78 1010.7
20260508011551 48 311 3.5 11.3 0.00 0.07 0.05 78 1010.8
20260508011053 48 338 4.3 9.6 0.00 0.07 0.05 78 1010.8
20260508010549 48 347 2.6 7.8 0.00 0.07 0.05 78 1010.6
20260508010050 48 304 1.7 9.6 0.00 0.07 0.05 77 1010.6
20260508005547 48 9 4.3 9.6 0.00 0.07 0.05 77 1010.6
20260508005052 48 356 3.5 7.8 0.00 0.07 0.05 77 1010.4
20260508004547 48 323 3.5 8.7 0.00 0.07 0.05 77 1010.4
20260508004046 48 283 3.5 9.6 0.00 0.07 0.05 77 1010.3
20260508003546 48 323 1.7 9.6 0.00 0.07 0.05 76 1010.2
20260508003045 49 127 2.6 13.0 0.00 0.07 0.05 76 1010.2
20260508002544 49 336 5.2 13.0 0.00 0.07 0.05 75 1010.1
20260508002044 49 105 4.3 13.0 0.00 0.07 0.05 75 1010.1
20260508001543 49 332 5.2 13.0 0.00 0.07 0.05 75 1010.2
20260508001043 49 304 3.5 11.3 0.00 0.07 0.05 76 1010.1
20260508000544 49 276 3.5 11.3 0.00 0.07 0.05 76 1010.1
20260508000045 49 315 5.2 19.1 0.00 0.07 0.05 77 1010.1
20260507235542 49 325 7.8 19.1 0.00 0.07 0.05 76 1010.0
20260507235045 50 270 7.0 17.4 0.00 0.07 0.05 75 1009.9
20260507234539 50 345 6.1 13.0 0.00 0.07 0.05 75 1009.9
20260507234038 50 354 5.2 10.4 0.00 0.07 0.05 74 1009.9
20260507233542 50 291 5.2 10.4 0.00 0.07 0.05 74 1009.9
20260507233042 50 290 4.3 10.4 0.00 0.07 0.05 74 1010.0
20260507232536 51 84 3.5 12.2 0.00 0.07 0.05 74 1010.0
20260507232037 51 294 3.5 13.0 0.00 0.07 0.05 75 1010.0
20260507231537 51 272 6.1 13.9 0.00 0.07 0.05 74 1010.0
20260507231034 51 262 5.2 13.9 0.00 0.07 0.05 75 1010.0
20260507230532 51 327 6.1 13.0 0.00 0.07 0.05 75 1010.0
20260507230031 51 284 4.3 13.0 0.00 0.07 0.05 74 1010.0
20260507225532 51 271 4.3 16.5 0.00 0.07 0.05 75 1010.0
20260507225032 51 292 5.2 16.5 0.00 0.07 0.05 75 1010.1
20260507224539 51 4 8.7 16.5 0.00 0.07 0.05 75 1009.6
20260507224030 52 302 6.1 15.6 0.00 0.07 0.05 75 1009.4
20260507223530 52 165 4.3 18.2 0.00 0.07 0.05 77 1009.5
20260507223033 51 326 6.1 18.2 0.00 0.07 0.05 77 1009.5
20260507222531 51 345 7.0 18.2 0.00 0.07 0.05 77 1009.3
20260507222030 52 34 7.8 15.6 0.00 0.07 0.05 76 1009.2
20260507221535 52 259 5.2 13.9 0.00 0.07 0.05 74 1009.1
20260507221028 53 12 2.6 10.4 0.00 0.07 0.05 75 1009.1
20260507220528 53 349 2.6 13.0 0.00 0.07 0.05 76 1009.0
20260507220029 53 318 6.1 13.0 0.00 0.07 0.05 76 1008.9
20260507215528 52 55 2.6 8.7 0.00 0.07 0.05 79 1008.8
20260507215027 52 345 5.2 13.0 0.00 0.07 0.05 82 1008.8
20260507214527 51 141 5.2 15.6 0.00 0.07 0.05 84 1008.8
20260507214026 52 316 7.8 15.6 0.00 0.07 0.05 83 1008.8
20260507213525 52 291 5.2 10.4 0.00 0.07 0.05 82 1008.7
20260507213024 53 34 2.6 15.6 0.00 0.07 0.05 83 1008.6
20260507212522 53 269 7.8 19.1 0.00 0.07 0.05 81 1008.4
20260507212021 54 323 7.0 19.1 0.00 0.07 0.05 79 1008.4
20260507211523 56 321 7.8 17.4 0.00 0.07 0.05 75 1008.2
20260507211018 58 297 3.5 9.6 0.00 0.07 0.05 72 1008.2
20260507210518 57 238 1.7 12.2 0.00 0.07 0.05 75 1008.0
20260507210018 57 231 5.2 13.9 0.00 0.07 0.05 74 1007.8
20260507205517 57 231 3.5 13.9 0.00 0.07 0.05 73 1007.6
20260507205016 58 333 7.8 17.4 0.00 0.07 0.05 72 1007.6
20260507204516 58 334 5.2 17.4 0.00 0.07 0.05 72 1007.6
20260507204015 60 342 5.2 13.0 0.00 0.07 0.05 70 1007.5
20260507203518 60 252 6.1 13.9 0.00 0.07 0.05 68 1007.6
20260507203015 60 257 4.3 13.9 0.00 0.07 0.05 68 1007.5
20260507202514 61 83 3.5 11.3 0.00 0.07 0.05 68 1007.3
20260507202016 60 234 1.7 13.0 0.00 0.07 0.05 69 1007.1
20260507201514 60 269 2.6 13.0 0.00 0.07 0.05 71 1007.2
20260507201014 60 292 4.3 10.4 0.00 0.07 0.05 70 1007.1
20260507200513 60 325 2.6 12.2 0.00 0.07 0.05 71 1007.1
20260507200013 61 23 2.6 12.2 0.00 0.07 0.05 71 1007.0
20260507195516 61 210 5.2 11.3 0.00 0.07 0.05 69 1007.2
20260507195015 61 271 4.3 13.0 0.00 0.07 0.05 70 1007.2
20260507194515 61 321 4.3 17.4 0.00 0.07 0.05 71 1007.3
20260507194012 60 247 3.5 17.4 0.00 0.07 0.05 73 1007.3
20260507193511 61 328 5.2 17.4 0.00 0.07 0.05 71 1007.2
20260507193010 62 337 6.1 17.4 0.00 0.07 0.05 68 1007.3
20260507192510 63 189 4.3 13.0 0.00 0.07 0.05 67 1007.3
20260507192010 63 139 4.3 12.2 0.00 0.07 0.05 66 1007.3
20260507191510 64 293 4.3 12.2 0.00 0.07 0.05 65 1007.4
20260507191009 64 194 3.5 10.4 0.00 0.07 0.05 64 1007.4
20260507190510 65 125 4.3 18.2 0.00 0.07 0.05 65 1007.5
20260507190010 64 118 2.6 18.2 0.00 0.07 0.05 66 1007.6
20260507185509 66 321 3.5 9.6 0.00 0.07 0.05 62 1007.6
20260507185009 67 258 4.3 9.6 0.00 0.07 0.05 62 1007.6
20260507184508 67 288 1.7 7.8 0.00 0.07 0.05 64 1007.7
20260507184008 66 221 2.6 7.8 0.00 0.07 0.05 64 1007.7
20260507183509 65 204 1.7 13.9 0.00 0.07 0.05 66 1007.6
20260507183011 64 141 5.2 13.9 0.00 0.07 0.05 68 1007.7
20260507182507 65 328 2.6 13.9 0.00 0.07 0.05 66 1007.7
20260507182007 65 206 5.2 13.9 0.00 0.07 0.05 65 1007.7
20260507181506 65 39 1.7 8.7 0.00 0.07 0.05 69 1007.7
20260507181009 65 40 4.3 11.3 0.00 0.07 0.05 67 1007.7
20260507180506 65 157 4.3 13.0 0.00 0.07 0.05 68 1007.5
20260507180009 65 290 6.1 13.0 0.00 0.07 0.05 67 1007.3
20260507175505 67 338 5.2 11.3 0.00 0.07 0.05 65 1007.3
20260507175005 67 328 3.5 11.3 0.00 0.07 0.05 62 1007.2
20260507174505 68 46 3.5 10.4 0.00 0.07 0.05 61 1007.3
20260507174004 68 18 3.5 10.4 0.00 0.07 0.05 61 1007.5
20260507173505 68 282 3.5 8.7 0.00 0.07 0.05 60 1007.5
20260507173010 68 101 1.7 9.6 0.00 0.07 0.05 62 1007.5
20260507172503 68 153 2.6 10.4 0.00 0.07 0.05 62 1007.2
20260507172003 68 349 3.5 10.4 0.00 0.07 0.05 61 1007.2
20260507171508 69 293 1.7 5.2 0.00 0.07 0.05 62 1007.3
20260507171003 68 278 1.7 12.2 0.00 0.07 0.05 63 1007.2
20260507170503 68 217 5.2 12.2 0.00 0.07 0.05 62 1007.3
20260507170003 68 327 3.5 9.6 0.00 0.07 0.05 61 1007.4
20260507165501 68 156 1.7 7.0 0.00 0.07 0.05 62 1007.3
20260507165001 67 243 1.7 7.0 0.00 0.07 0.05 63 1007.3
20260507164607 67 321 2.6 7.0 0.00 0.07 0.05 62 1007.5
20260507164100 67 144 2.6 7.0 0.00 0.07 0.05 64 1007.6
20260507163600 66 311 2.6 8.7 0.00 0.07 0.05 68 1007.6
20260507163059 67 326 3.5 8.7 0.00 0.07 0.05 67 1007.7
20260507162659 66 226 1.7 7.0 0.00 0.07 0.05 69 1007.6
20260507162057 66 248 0.9 6.1 0.00 0.07 0.05 69 1007.7
20260507161601 67 217 0.9 6.1 0.00 0.07 0.05 70 1007.6
20260507161058 66 230 1.7 4.3 0.00 0.07 0.05 70 1007.7
20260507160558 66 300 0.0 6.1 0.00 0.07 0.05 73 1007.8
20260507160059 66 267 0.9 6.1 0.00 0.07 0.05 71 1007.6
20260507155557 66 327 2.6 7.0 0.00 0.07 0.05 69 1007.6
20260507155106 68 347 3.5 7.0 0.00 0.07 0.05 66 1007.5
20260507154600 69 27 0.9 5.2 0.00 0.07 0.05 69 1007.5
20260507154057 68 208 0.9 6.1 0.00 0.07 0.05 69 1007.5
20260507153554 66 213 1.7 6.1 0.00 0.07 0.05 73 1007.6
20260507153056 65 157 0.0 4.3 0.00 0.07 0.05 81 1007.6
20260507152558 63 297 1.7 4.3 0.00 0.07 0.05 80 1007.8
20260507152054 64 349 0.9 3.5 0.00 0.07 0.05 78 1007.7
20260507151553 65 15 0.9 5.2 0.00 0.07 0.05 77 1007.7
20260507151053 65 224 1.7 8.7 0.00 0.07 0.05 76 1007.6
20260507150554 66 231 2.6 8.7 0.00 0.07 0.05 75 1007.6
20260507150053 67 179 0.9 3.5 0.00 0.07 0.05 72 1007.6
20260507145551 66 158 1.7 3.5 0.00 0.07 0.05 75 1007.6
20260507145050 65 248 0.0 3.5 0.00 0.07 0.05 78 1007.8
20260507144549 66 224 0.0 4.3 0.00 0.07 0.05 81 1007.9
20260507144048 64 168 0.9 5.2 0.00 0.07 0.05 81 1008.0
20260507143550 64 204 1.7 5.2 0.00 0.07 0.05 79 1007.9
20260507143052 65 240 0.0 2.6 0.00 0.07 0.05 82 1007.9
20260507142546 64 235 0.0 0.9 0.00 0.07 0.05 87 1008.1
20260507142044 63 235 0.0 1.7 0.00 0.07 0.05 87 1008.2
20260507141551 63 205 0.0 0.9 0.00 0.07 0.05 88 1008.1
20260507141044 63 205 0.0 0.9 0.00 0.07 0.05 88 1008.4
20260507140545 63 205 0.0 0.0 0.00 0.07 0.05 89 1008.2
20260507140044 62 205 0.0 1.7 0.00 0.07 0.05 89 1008.3